CMP87JW MROC-JWN1

Flight info

Callsign CMP87JW
Flight time N/A
Altitude 31000
Route NANJ3C NANJO DCT OC275 DCT OC307 DCT TONIO DCT JWN1
Aircraft B738/M-SDE2E3FGHIJ3J4J5M1RWXY/LB1D1

Departure

Time 2026-05-04 10:16
Airport Juan Santamaría International Airport (MROC)

Arrival

Time N/A
Airport JWN1
Time Latitude Longitude Altitude Speed Heading
2026-05-04 09:56 9.99510 -84.21366 2986 ft 0 kts 339°
2026-05-04 10:05 9.99509 -84.21366 2986 ft 2 kts 339°
2026-05-04 10:05 9.99486 -84.21355 2986 ft 4 kts 326°
2026-05-04 10:06 9.99467 -84.21337 2986 ft 4 kts 296°
2026-05-04 10:06 9.99463 -84.21317 2987 ft 1 kts 249°
2026-05-04 10:09 9.99456 -84.21323 2986 ft 2 kts 200°
2026-05-04 10:09 9.99454 -84.21310 2987 ft 3 kts 52°
2026-05-04 10:10 9.99470 -84.21290 2988 ft 6 kts 55°
2026-05-04 10:10 9.99491 -84.21236 2990 ft 9 kts 85°
2026-05-04 10:10 9.99436 -84.21195 2990 ft 13 kts 162°
2026-05-04 10:10 9.99354 -84.21239 2987 ft 19 kts 249°
2026-05-04 10:11 9.99302 -84.21379 2981 ft 23 kts 249°
2026-05-04 10:11 9.99248 -84.21522 2976 ft 21 kts 249°
2026-05-04 10:11 9.99194 -84.21669 2970 ft 23 kts 249°
2026-05-04 10:11 9.99132 -84.21833 2953 ft 26 kts 249°
2026-05-04 10:12 9.99099 -84.21989 2959 ft 23 kts 278°
2026-05-04 10:12 9.99076 -84.22144 2946 ft 19 kts 249°
2026-05-04 10:12 9.99008 -84.22204 2950 ft 5 kts 165°
2026-05-04 10:12 9.99001 -84.22201 2948 ft 0 kts 162°
2026-05-04 10:14 9.98967 -84.22189 2949 ft 10 kts 160°
2026-05-04 10:14 9.98924 -84.22129 2945 ft 13 kts 75°
2026-05-04 10:16 10.01243 -84.17951 4193 ft 220 kts 18°
2026-05-04 10:16 10.02783 -84.17902 5017 ft 226 kts 350°
2026-05-04 10:16 10.04234 -84.18603 5400 ft 244 kts 321°
2026-05-04 10:16 10.05192 -84.20009 5922 ft 252 kts 292°
2026-05-04 10:17 10.05610 -84.21744 6441 ft 257 kts 281°
2026-05-04 10:17 10.06108 -84.23523 6754 ft 267 kts 292°
2026-05-04 10:19 10.11238 -84.37072 10448 ft 323 kts 292°
2026-05-04 10:19 10.12132 -84.39250 10558 ft 345 kts 293°
2026-05-04 10:19 10.13098 -84.41563 10771 ft 364 kts 293°
2026-05-04 10:19 10.14093 -84.43948 11291 ft 369 kts 293°
2026-05-04 10:20 10.15088 -84.46343 12023 ft 369 kts 293°
2026-05-04 10:20 10.16085 -84.48755 12669 ft 372 kts 293°
2026-05-04 10:20 10.17090 -84.51193 13224 ft 377 kts 293°
2026-05-04 10:20 10.18103 -84.53652 13873 ft 378 kts 293°
2026-05-04 10:21 10.19119 -84.56123 14458 ft 380 kts 293°
2026-05-04 10:21 10.20140 -84.58608 14993 ft 383 kts 292°
2026-05-04 10:21 10.21170 -84.61114 15519 ft 386 kts 292°
2026-05-04 10:21 10.22210 -84.63646 16044 ft 390 kts 292°
2026-05-04 10:22 10.24316 -84.68774 16967 ft 400 kts 292°
2026-05-04 10:22 10.25379 -84.71393 17518 ft 401 kts 290°
2026-05-04 10:22 10.26110 -84.74128 18108 ft 402 kts 279°
2026-05-04 10:23 10.26355 -84.76953 18519 ft 405 kts 269°
2026-05-04 10:23 10.26142 -84.79820 18918 ft 407 kts 262°
2026-05-04 10:25 10.23869 -84.99847 22627 ft 402 kts 262°
2026-05-04 10:25 10.23575 -85.02553 22771 ft 412 kts 261°
2026-05-04 10:25 10.23259 -85.05466 22980 ft 419 kts 262°
2026-05-04 10:25 10.22935 -85.08442 23099 ft 428 kts 262°
2026-05-04 10:26 10.22608 -85.11454 23434 ft 430 kts 262°
2026-05-04 10:26 10.22279 -85.14475 23793 ft 430 kts 262°
2026-05-04 10:26 10.21951 -85.17496 24120 ft 431 kts 262°
2026-05-04 10:26 10.21621 -85.20530 24409 ft 433 kts 262°
2026-05-04 10:27 10.21397 -85.22588 24584 ft 435 kts 262°
2026-05-04 10:27 10.21068 -85.25605 24854 ft 437 kts 262°
2026-05-04 10:27 10.20732 -85.28676 25140 ft 439 kts 262°
2026-05-04 10:27 10.20396 -85.31760 25426 ft 441 kts 262°
2026-05-04 10:28 10.20053 -85.34898 25698 ft 443 kts 263°
2026-05-04 10:28 10.19716 -85.37972 25954 ft 445 kts 263°
2026-05-04 10:28 10.19369 -85.41143 26231 ft 446 kts 263°
2026-05-04 10:28 10.18982 -85.44225 26516 ft 447 kts 257°
2026-05-04 10:29 10.18014 -85.47205 26866 ft 445 kts 246°
2026-05-04 10:29 10.16734 -85.50059 27312 ft 442 kts 244°
2026-05-04 10:29 10.15394 -85.52864 27679 ft 442 kts 243°
2026-05-04 10:29 10.14032 -85.55663 28014 ft 442 kts 243°
2026-05-04 10:30 10.12664 -85.58457 28376 ft 442 kts 243°
2026-05-04 10:30 10.11291 -85.61249 28785 ft 441 kts 243°
2026-05-04 10:30 10.09920 -85.64028 29189 ft 440 kts 243°
2026-05-04 10:30 10.08550 -85.66801 29563 ft 440 kts 243°
2026-05-04 10:31 10.07178 -85.69571 29881 ft 441 kts 243°
2026-05-04 10:32 9.97728 -85.88623 29871 ft 440 kts 243°
2026-05-04 10:33 9.94970 -85.94198 29870 ft 441 kts 243°
2026-05-04 10:33 9.93606 -85.96957 29722 ft 433 kts 243°
2026-05-04 10:33 9.92279 -85.99645 29202 ft 431 kts 243°
2026-05-04 10:34 9.91008 -86.02227 28544 ft 433 kts 243°
2026-05-04 10:34 9.89661 -86.04971 27769 ft 437 kts 243°
2026-05-04 10:34 9.88304 -86.07744 27018 ft 440 kts 243°
2026-05-04 10:34 9.86924 -86.10576 26292 ft 443 kts 243°
2026-05-04 10:35 9.85561 -86.13387 25599 ft 444 kts 243°
2026-05-04 10:35 9.84190 -86.16229 25083 ft 441 kts 243°
2026-05-04 10:35 9.82868 -86.18980 24677 ft 436 kts 243°
2026-05-04 10:35 9.81550 -86.21735 24216 ft 432 kts 243°
2026-05-04 10:36 9.80248 -86.24468 23755 ft 429 kts 243°
2026-05-04 10:36 9.78941 -86.27219 23260 ft 426 kts 243°
2026-05-04 10:36 9.77678 -86.29883 22719 ft 423 kts 243°
2026-05-04 10:36 9.76406 -86.32566 22164 ft 421 kts 243°
2026-05-04 10:37 9.75125 -86.35269 21610 ft 419 kts 244°
2026-05-04 10:37 9.73882 -86.37887 21085 ft 416 kts 244°
2026-05-04 10:37 9.72628 -86.40524 20574 ft 414 kts 244°
2026-05-04 10:37 9.71379 -86.43148 20067 ft 412 kts 244°
2026-05-04 10:39 9.63977 -86.58601 17144 ft 400 kts 244°
2026-05-04 10:39 9.62758 -86.61132 16687 ft 397 kts 244°
2026-05-04 10:39 9.61552 -86.63638 16203 ft 395 kts 244°
2026-05-04 10:40 9.60357 -86.66128 15726 ft 393 kts 244°
2026-05-04 10:40 9.59165 -86.68619 15267 ft 391 kts 244°
2026-05-04 10:40 9.58038 -86.70983 14841 ft 389 kts 244°
2026-05-04 10:40 9.56928 -86.73321 14444 ft 387 kts 244°
2026-05-04 10:41 9.55746 -86.75820 13976 ft 385 kts 244°
2026-05-04 10:41 9.54580 -86.78298 13521 ft 383 kts 244°
2026-05-04 10:41 9.53266 -86.80624 13020 ft 380 kts 230°
2026-05-04 10:41 9.51313 -86.82383 12549 ft 375 kts 209°
2026-05-04 10:42 9.48943 -86.83427 12142 ft 369 kts 197°
2026-05-04 10:42 9.46435 -86.84223 11689 ft 366 kts 194°
2026-05-04 10:42 9.44100 -86.84918 11234 ft 365 kts 194°
2026-05-04 10:42 9.41541 -86.85665 10860 ft 361 kts 194°
2026-05-04 10:43 9.39132 -86.86363 10440 ft 359 kts 194°
2026-05-04 10:44 9.31433 -86.98467 7221 ft 347 kts 309°
2026-05-04 10:45 9.32837 -87.00253 6875 ft 342 kts 314°
2026-05-04 10:45 9.34547 -87.01919 6538 ft 333 kts 331°
2026-05-04 10:45 9.36605 -87.02771 6505 ft 310 kts 352°
2026-05-04 10:45 9.38678 -87.02864 6497 ft 290 kts
2026-05-04 10:46 9.40627 -87.02594 6495 ft 274 kts 15°
2026-05-04 10:46 9.42427 -87.02120 6469 ft 262 kts 18°
2026-05-04 10:46 9.44158 -87.01628 6386 ft 253 kts 19°
2026-05-04 10:46 9.45831 -87.01143 6245 ft 249 kts 19°
2026-05-04 10:47 9.47492 -87.00643 5975 ft 249 kts 19°
2026-05-04 10:47 9.49116 -87.00152 5744 ft 247 kts 19°
2026-05-04 10:47 9.50776 -86.99643 5509 ft 249 kts 19°
2026-05-04 10:47 9.52432 -86.99128 5211 ft 250 kts 19°
2026-05-04 10:49 9.62545 -87.00060 5004 ft 277 kts 287°
2026-05-04 10:49 9.62822 -87.01996 5007 ft 278 kts 278°
2026-05-04 10:50 9.62980 -87.03936 4988 ft 271 kts 277°
2026-05-04 10:51 9.54635 -87.09519 3863 ft 223 kts 192°
2026-05-04 10:52 9.53159 -87.09913 3540 ft 217 kts 192°
2026-05-04 10:52 9.51715 -87.10303 3200 ft 213 kts 192°
2026-05-04 10:52 9.50276 -87.10693 2849 ft 209 kts 192°
2026-05-04 10:54 9.43544 -87.06161 1682 ft 198 kts 133°
2026-05-04 10:54 9.42666 -87.05090 1136 ft 202 kts 124°
2026-05-04 10:56 9.36985 -86.99576 2153 ft 178 kts 175°
2026-05-04 10:56 9.35739 -87.00024 1879 ft 194 kts 221°
2026-05-04 10:56 9.34878 -87.00948 1986 ft 169 kts 228°
2026-05-04 10:57 9.34120 -87.01839 2064 ft 171 kts 229°
2026-05-04 10:57 9.33277 -87.02833 2202 ft 193 kts 229°
2026-05-04 10:57 9.32307 -87.03823 2194 ft 192 kts 229°
2026-05-04 10:57 9.31806 -87.05022 2191 ft 188 kts 270°
2026-05-04 10:58 9.32175 -87.06239 2203 ft 181 kts 310°
2026-05-04 10:58 9.33024 -87.07176 2204 ft 183 kts 315°
2026-05-04 10:58 9.33896 -87.08123 2198 ft 184 kts 315°
2026-05-04 10:58 9.34770 -87.09076 2197 ft 185 kts 315°
2026-05-04 10:59 9.35651 -87.10031 2202 ft 186 kts 315°
2026-05-04 10:59 9.36534 -87.10987 2202 ft 186 kts 315°
2026-05-04 10:59 9.37418 -87.11944 2200 ft 186 kts 315°
2026-05-04 10:59 9.38313 -87.12891 2199 ft 185 kts 321°
2026-05-04 11:00 9.39456 -87.13378 2184 ft 176 kts
2026-05-04 11:01 9.45619 -87.08363 1407 ft 163 kts 70°
2026-05-04 11:02 9.45584 -87.07277 1274 ft 162 kts 115°
2026-05-04 11:02 9.44820 -87.06501 1256 ft 153 kts 147°
2026-05-04 11:05 9.39508 -87.01520 41 ft 5 kts 109°
2026-05-04 11:06 9.39508 -87.01518 41 ft 5 kts 101°
2026-05-04 11:08 9.39551 -87.01491 40 ft 4 kts 35°
2026-05-04 11:10 9.39578 -87.01494 42 ft 0 kts 310°